Location: Clermont
(50.2608°N, 4.3172°E)
Time: 05:27:29
(UTC+00:00)

Terra - Pass Details

Date: 13 August 2020
Orbit: 701 x 703 km, 98.2° (Epoch: 19 September)

Event Time Altitude Azimuth Distance (km) Brightness Sun altitude
Exits shadow 20:41:05 20° 118° (ESE) 1,622 3.1 -13.6°
Maximum altitude 20:43:45 35° 65° (ENE) 1,138 2.7 -13.9°
Drops below altitude 10° 20:48:04 10° 1° (N) 2,184 5.0 -14.4°
Sets 20:50:29 0° 352° (N) 3,106 6.1 -14.7°
